Previsão horária em Abbotsford

Hoje, 18 Abril, Domingo

Tempo Temperatura Precipitação Vento Pressão Humidade
00:00 +13°C° 0 mm 1 m/s 759 mmHg 72%
01:00 +13°C° 0 mm 1 m/s 759 mmHg 72%
02:00 +12°C° 0 mm 1 m/s 759 mmHg 72%
03:00 +12°C° 0 mm 1 m/s 759 mmHg 72%
04:00 +12°C° 0 mm 1 m/s 759 mmHg 72%
05:00 +13°C° 0 mm 1 m/s 759 mmHg 69%
06:00 +13°C° 0 mm 0 m/s 758 mmHg 66%
07:00 +14°C° 0 mm 0 m/s 758 mmHg 63%
08:00 +16°C° 0 mm 0 m/s 758 mmHg 57%
09:00 +20°C° 0 mm 1 m/s 758 mmHg 51%
10:00 +21°C° 0 mm 1 m/s 758 mmHg 45%
11:00 +22°C° 0 mm 1 m/s 758 mmHg 43%
12:00 +23°C° 0 mm 2 m/s 758 mmHg 40%
13:00 +24°C° 0 mm 2 m/s 757 mmHg 37%
14:00 +23°C° 0 mm 2 m/s 757 mmHg 38%
15:00 +23°C° 0 mm 2 m/s 757 mmHg 39%
16:00 +23°C° 0 mm 2 m/s 756 mmHg 40%
17:00 +21°C° 0 mm 1 m/s 756 mmHg 50%
18:00 +19°C° 0 mm 1 m/s 756 mmHg 60%
19:00 +15°C° 0 mm 1 m/s 756 mmHg 69%
20:00 +15°C° 0 mm 1 m/s 757 mmHg 70%
21:00 +14°C° 0 mm 2 m/s 758 mmHg 72%
22:00 +13°C° 0 mm 3 m/s 758 mmHg 73%
23:00 +12°C° 0 mm 3 m/s 759 mmHg 71%

Amanhã, 19 Abril, Segunda-feira

Tempo Temperatura Precipitação Vento Pressão Humidade
00:00 +11°C° 0 mm 3 m/s 759 mmHg 70%
01:00 +10°C° 0 mm 3 m/s 760 mmHg 68%
02:00 +10°C° 0 mm 2 m/s 760 mmHg 67%
03:00 +9°C° 0 mm 2 m/s 760 mmHg 66%
04:00 +8°C° 0 mm 2 m/s 761 mmHg 65%
05:00 +10°C° 0 mm 2 m/s 761 mmHg 62%
06:00 +12°C° 0 mm 2 m/s 761 mmHg 58%
07:00 +13°C° 0 mm 2 m/s 761 mmHg 54%
08:00 +15°C° 0 mm 1 m/s 761 mmHg 47%
09:00 +18°C° 0 mm 1 m/s 761 mmHg 39%
10:00 +21°C° 0 mm 1 m/s 760 mmHg 32%
11:00 +21°C° 0 mm 1 m/s 760 mmHg 31%
12:00 +21°C° 0 mm 2 m/s 760 mmHg 31%
13:00 +23°C° 0 mm 2 m/s 760 mmHg 31%
14:00 +21°C° 0 mm 2 m/s 759 mmHg 33%
15:00 +21°C° 0 mm 2 m/s 759 mmHg 35%
16:00 +21°C° 0 mm 2 m/s 758 mmHg 37%
17:00 +19°C° 0 mm 1 m/s 758 mmHg 47%
18:00 +16°C° 0 mm 1 m/s 758 mmHg 56%
19:00 +13°C° 0 mm 0 m/s 758 mmHg 66%
20:00 +12°C° 0 mm 0 m/s 758 mmHg 67%
21:00 +12°C° 0 mm 1 m/s 758 mmHg 69%
22:00 +12°C° 0 mm 1 m/s 758 mmHg 70%
23:00 +11°C° 0 mm 1 m/s 758 mmHg 72%

Depois de amanhã, 20 Abril, Terça-feira

Tempo Temperatura Precipitação Vento Pressão Humidade
00:00 +11°C° 0 mm 1 m/s 758 mmHg 73%
01:00 +11°C° 0 mm 1 m/s 758 mmHg 74%
02:00 +10°C° 0 mm 1 m/s 758 mmHg 75%
03:00 +10°C° 0 mm 1 m/s 758 mmHg 75%
04:00 +10°C° 0 mm 1 m/s 758 mmHg 76%
05:00 +11°C° 0 mm 1 m/s 758 mmHg 71%
06:00 +11°C° 0 mm 0 m/s 758 mmHg 67%
07:00 +12°C° 0 mm 0 m/s 758 mmHg 63%
08:00 +14°C° 0 mm 0 m/s 758 mmHg 57%
09:00 +18°C° 0 mm 1 m/s 757 mmHg 51%
10:00 +20°C° 0 mm 1 m/s 757 mmHg 46%
11:00 +21°C° 0 mm 1 m/s 757 mmHg 44%
12:00 +20°C° 0 mm 2 m/s 756 mmHg 42%
13:00 +21°C° 0 mm 2 m/s 756 mmHg 40%
14:00 +21°C° 0 mm 2 m/s 756 mmHg 41%
15:00 +21°C° 0 mm 2 m/s 755 mmHg 42%
16:00 +21°C° 0 mm 2 m/s 755 mmHg 44%
17:00 +19°C° 0 mm 1 m/s 755 mmHg 53%
18:00 +16°C° 0 mm 1 m/s 755 mmHg 63%
19:00 +13°C° 0 mm 0 m/s 755 mmHg 73%
20:00 +13°C° 0 mm 1 m/s 755 mmHg 74%
21:00 +12°C° 0 mm 1 m/s 755 mmHg 76%
22:00 +11°C° 0 mm 1 m/s 755 mmHg 78%
23:00 +11°C° 0 mm 1 m/s 755 mmHg 79%

21 Abril, Quarta-feira

Tempo Temperatura Precipitação Vento Pressão Humidade
00:00 +11°C° 0 mm 1 m/s 755 mmHg 80%
01:00 +10°C° 0 mm 1 m/s 755 mmHg 80%
02:00 +10°C° 0 mm 1 m/s 755 mmHg 81%
03:00 +10°C° 0 mm 1 m/s 755 mmHg 82%
04:00 +10°C° 0 mm 1 m/s 755 mmHg 82%
05:00 +10°C° 0 mm 0 m/s 755 mmHg 78%
06:00 +11°C° 0 mm 0 m/s 755 mmHg 73%
07:00 +12°C° 0 mm 0 m/s 755 mmHg 68%
08:00 +14°C° 0 mm 0 m/s 755 mmHg 63%
09:00 +18°C° 0 mm 1 m/s 755 mmHg 57%
10:00 +19°C° 0 mm 1 m/s 755 mmHg 51%
11:00 +19°C° 0 mm 2 m/s 755 mmHg 49%
12:00 +20°C° 0 mm 2 m/s 755 mmHg 47%
13:00 +21°C° 0 mm 2 m/s 755 mmHg 46%
14:00 +20°C° 0 mm 2 m/s 754 mmHg 46%
15:00 +20°C° 0 mm 2 m/s 754 mmHg 47%
16:00 +20°C° 0 mm 2 m/s 754 mmHg 47%
17:00 +19°C° 0 mm 1 m/s 754 mmHg 57%
18:00 +16°C° 0 mm 1 m/s 754 mmHg 68%
19:00 +13°C° 0 mm 0 m/s 754 mmHg 78%
20:00 +12°C° 0 mm 0 m/s 754 mmHg 79%
21:00 +12°C° 0 mm 1 m/s 754 mmHg 81%
22:00 +12°C° 0 mm 1 m/s 754 mmHg 82%
23:00 +11°C° 0 mm 1 m/s 754 mmHg 82%

22 Abril, Quinta-feira

Tempo Temperatura Precipitação Vento Pressão Humidade
00:00 +11°C° 0 mm 1 m/s 755 mmHg 82%
01:00 +11°C° 0 mm 1 m/s 755 mmHg 82%
02:00 +11°C° 0 mm 1 m/s 755 mmHg 84%
03:00 +10°C° 0 mm 1 m/s 755 mmHg 86%
04:00 +10°C° 0 mm 1 m/s 755 mmHg 87%
05:00 +10°C° 0 mm 0 m/s 755 mmHg 84%
06:00 +11°C° 0 mm 0 m/s 755 mmHg 80%
07:00 +12°C° 0 mm 0 m/s 755 mmHg 76%
08:00 +14°C° 0 mm 1 m/s 755 mmHg 71%
09:00 +15°C° 0 mm 1 m/s 755 mmHg 66%
10:00 +16°C° 0 mm 1 m/s 755 mmHg 61%
11:00 +17°C° 0 mm 2 m/s 755 mmHg 60%
12:00 +17°C° 0 mm 2 m/s 755 mmHg 58%
13:00 +17°C° 0 mm 2 m/s 755 mmHg 57%
14:00 +17°C° 0 mm 2 m/s 755 mmHg 58%
15:00 +17°C° 0 mm 2 m/s 755 mmHg 60%
16:00 +16°C° 0 mm 1 m/s 755 mmHg 61%
17:00 +15°C° 0 mm 1 m/s 755 mmHg 68%
18:00 +13°C° 0 mm 1 m/s 755 mmHg 75%
19:00 +11°C° 0 mm 0 m/s 755 mmHg 82%
20:00 +11°C° 0 mm 1 m/s 755 mmHg 82%
21:00 +11°C° 0 mm 1 m/s 755 mmHg 83%
22:00 +10°C° 0 mm 1 m/s 756 mmHg 83%
23:00 +11°C° 0 mm 1 m/s 756 mmHg 79%

23 Abril, Sexta-feira

Tempo Temperatura Precipitação Vento Pressão Humidade
00:00 +11°C° 0 mm 1 m/s 756 mmHg 75%
01:00 +11°C° 0 mm 1 m/s 756 mmHg 71%
02:00 +11°C° 0 mm 1 m/s 756 mmHg 71%
03:00 +11°C° 0 mm 1 m/s 756 mmHg 72%
04:00 +11°C° 0 mm 1 m/s 756 mmHg 72%
05:00 +10°C° 0 mm 0 m/s 756 mmHg 69%
06:00 +11°C° 0 mm 0 m/s 756 mmHg 67%
07:00 +12°C° 0 mm 0 m/s 756 mmHg 65%
08:00 +13°C° 0 mm 0 m/s 756 mmHg 61%
09:00 +15°C° 0 mm 1 m/s 756 mmHg 57%
10:00 +18°C° 0 mm 1 m/s 756 mmHg 54%
11:00 +16°C° 0.1 mm 1 m/s 756 mmHg 61%
12:00 +14°C° 0.1 mm 0 m/s 756 mmHg 69%
13:00 +13°C° 0.1 mm 0 m/s 756 mmHg 76%
14:00 +13°C° 0.2 mm 0 m/s 756 mmHg 80%
15:00 +12°C° 0.2 mm 0 m/s 756 mmHg 84%
16:00 +12°C° 0.2 mm 0 m/s 756 mmHg 89%
17:00 +12°C° 0 mm 0 m/s 755 mmHg 89%
18:00 +13°C° 0 mm 1 m/s 755 mmHg 90%
19:00 +13°C° 0 mm 1 m/s 755 mmHg 90%
20:00 +12°C° 0 mm 1 m/s 755 mmHg 90%
21:00 +12°C° 0 mm 1 m/s 755 mmHg 90%
22:00 +12°C° 0 mm 1 m/s 755 mmHg 90%
23:00 +12°C° 0 mm 1 m/s 754 mmHg 91%
Mostrar mais

Necessitamos do seu Consentimento

A Meteoprog e os seus Fornecedores de Serviços podem armazenar e aceder a dados pessoais como cookies, identificadores do dispositivo ou outras tecnologias semelhantes existentes no seu dispositivo e processar estes dados para personalizar conteúdos e anúncios, assim como funcionalidades nas redes sociais e análise de tráfego.

  • Armazenar e/ou aceder a informações no seu dispositivo

    Os cookies, identificadores do dispositivo ou outras informações podem ser armazenados ou acedidos no seu dispositivo, para os fins acima indicados.

  • Anúncios e conteúdos personalizados, medição de anúncios e conteúdos, dados sobre o público-alvo e desenvolvimento de produtos

    Os anúncios e os conteúdos podem ser personalizados com base num perfil. Podem ser adicionados dados adicionais para uma maior personalização dos anúncios e dos conteúdos. A eficácia dos anúncios e dos conteúdos pode ser medida. Podem ser obtidas informações sobre o público que visualizou os anúncios e os conteúdos. Estes dados podem ser usados para desenvolver ou melhorar sistemas, softwares ou a experiência do utilizador.

Ao clicar em "Eu concordo”, permitirá o uso de cookies, identificadores do dispositivo e web beacons mencionados ou outras tecnologias semelhantes. As configurações do navegador do seu dispositivo podem ser alteradas.

Para certos fins, podem ser invocados interesses legítimos ao invés de consentimento. Pode ler mais informação sobre este assunto na nossa Política de Privacidade e Cookies.